Time,TemperatureF,DewpointF,PressureIn,WindDirection,WindDirectionDegrees,WindSpeedMPH,WindSpeedGustMPH,Humidity,HourlyPrecipIn,Conditions,Clouds,dailyrainin,SoftwareType,DateUTC
2013-09-17 00:10:00,40.6,38.0,30.28,NNW,327,5.0,7.0,90,0.00,,,0.01,weatherlink.com 1.10,2013-09-17 04:10:00,
2013-09-17 00:25:00,40.4,38.0,30.28,NW,325,4.0,7.0,89,0.00,,,0.01,weatherlink.com 1.10,2013-09-17 04:25:00,
2013-09-17 00:42:00,40.3,37.0,30.29,NNW,327,3.0,6.0,89,0.00,,,0.01,weatherlink.com 1.10,2013-09-17 04:42:00,
2013-09-17 00:55:00,40.2,38.0,30.29,NW,325,1.0,7.0,90,0.00,,,0.01,weatherlink.com 1.10,2013-09-17 04:55:00,
2013-09-17 01:11:00,39.8,37.0,30.30,WNW,291,3.0,6.0,89,0.00,,,0.01,weatherlink.com 1.10,2013-09-17 05:11:00,
2013-09-17 01:25:00,39.2,37.0,30.30,WNW,296,0.0,3.0,90,0.00,,,0.01,weatherlink.com 1.10,2013-09-17 05:25:00,
2013-09-17 01:40:00,37.7,35.0,30.30,WNW,296,0.0,3.0,91,0.00,,,0.01,weatherlink.com 1.10,2013-09-17 05:40:00,
2013-09-17 01:56:00,36.8,35.0,30.30,WNW,296,0.0,1.0,92,0.00,,,0.01,weatherlink.com 1.10,2013-09-17 05:56:00,
2013-09-17 02:11:00,36.3,34.0,30.31,WNW,296,0.0,1.0,92,0.00,,,0.01,weatherlink.com 1.10,2013-09-17 06:11:00,
2013-09-17 02:26:00,35.9,34.0,30.30,WNW,296,0.0,0.0,93,0.00,,,0.01,weatherlink.com 1.10,2013-09-17 06:26:00,
2013-09-17 02:41:00,35.9,34.0,30.31,WNW,296,0.0,0.0,93,0.00,,,0.01,weatherlink.com 1.10,2013-09-17 06:41:00,
2013-09-17 02:56:00,36.4,35.0,30.31,WNW,296,2.0,3.0,94,0.00,,,0.01,weatherlink.com 1.10,2013-09-17 06:56:00,
2013-09-17 03:11:00,36.9,35.0,30.31,NW,309,1.0,5.0,93,0.00,,,0.01,weatherlink.com 1.10,2013-09-17 07:11:00,
2013-09-17 03:26:00,36.8,35.0,30.31,West,280,2.0,3.0,93,0.00,,,0.01,weatherlink.com 1.10,2013-09-17 07:26:00,
2013-09-17 03:41:00,36.8,35.0,30.32,NW,325,4.0,5.0,94,0.00,,,0.01,weatherlink.com 1.10,2013-09-17 07:41:00,
2013-09-17 03:57:00,37.1,36.0,30.32,NNW,327,3.0,5.0,94,0.00,,,0.01,weatherlink.com 1.10,2013-09-17 07:57:00,
2013-09-17 04:12:00,36.9,35.0,30.32,NNW,327,2.0,4.0,94,0.00,,,0.01,weatherlink.com 1.10,2013-09-17 08:12:00,
2013-09-17 04:27:00,37.2,35.0,30.33,NNW,327,2.0,4.0,93,0.00,,,0.01,weatherlink.com 1.10,2013-09-17 08:27:00,
2013-09-17 05:01:00,36.2,34.0,30.34,NNW,327,0.0,4.0,93,0.00,,,0.01,weatherlink.com 1.10,2013-09-17 09:01:00,
2013-09-17 05:13:00,35.9,34.0,30.34,NNW,327,2.0,3.0,93,0.00,,,0.00,weatherlink.com 1.10,2013-09-17 09:13:00,
2013-09-17 05:27:00,36.2,35.0,30.35,NNW,327,2.0,4.0,94,0.00,,,0.00,weatherlink.com 1.10,2013-09-17 09:27:00,
2013-09-17 05:43:00,36.0,35.0,30.36,NNW,327,1.0,4.0,94,0.00,,,0.00,weatherlink.com 1.10,2013-09-17 09:43:00,
2013-09-17 05:58:00,36.0,35.0,30.36,NNW,327,4.0,5.0,94,0.00,,,0.00,weatherlink.com 1.10,2013-09-17 09:58:00,
2013-09-17 06:13:00,36.2,35.0,30.37,NNW,327,2.0,5.0,94,0.00,,,0.00,weatherlink.com 1.10,2013-09-17 10:13:00,
2013-09-17 06:28:00,36.1,35.0,30.38,NW,326,2.0,4.0,94,0.00,,,0.00,weatherlink.com 1.10,2013-09-17 10:28:00,
2013-09-17 06:43:00,35.8,34.0,30.38,NW,326,1.0,4.0,94,0.00,,,0.00,weatherlink.com 1.10,2013-09-17 10:43:00,
2013-09-17 06:58:00,35.7,34.0,30.39,NW,326,3.0,4.0,94,0.00,,,0.00,weatherlink.com 1.10,2013-09-17 10:58:00,
2013-09-17 07:13:00,35.9,34.0,30.39,NW,326,1.0,3.0,94,0.00,,,0.00,weatherlink.com 1.10,2013-09-17 11:13:00,
2013-09-17 07:29:00,35.8,34.0,30.39,NW,326,0.0,1.0,94,0.00,,,0.00,weatherlink.com 1.10,2013-09-17 11:29:00,
2013-09-17 07:44:00,36.1,35.0,30.40,NW,326,0.0,2.0,94,0.00,,,0.00,weatherlink.com 1.10,2013-09-17 11:44:00,
2013-09-17 07:59:00,36.9,35.0,30.41,NW,326,2.0,3.0,94,0.00,,,0.00,weatherlink.com 1.10,2013-09-17 11:59:00,
2013-09-17 08:14:00,38.8,37.0,30.41,NNW,346,0.0,3.0,93,0.00,,,0.00,weatherlink.com 1.10,2013-09-17 12:14:00,
2013-09-17 08:30:00,40.2,38.0,30.41,NNW,347,0.0,2.0,90,0.00,,,0.00,weatherlink.com 1.10,2013-09-17 12:30:00,
2013-09-17 08:44:00,41.0,38.0,30.42,NNW,347,0.0,3.0,88,0.00,,,0.00,weatherlink.com 1.10,2013-09-17 12:44:00,
2013-09-17 08:59:00,42.7,38.0,30.43,SSE,165,2.0,5.0,83,0.00,,,0.00,weatherlink.com 1.10,2013-09-17 12:59:00,
2013-09-17 09:15:00,43.8,38.0,30.43,SW,236,1.0,4.0,79,0.00,,,0.00,weatherlink.com 1.10,2013-09-17 13:15:00,
2013-09-17 09:30:00,44.9,39.0,30.43,South,180,0.0,12.0,79,0.00,,,0.00,weatherlink.com 1.10,2013-09-17 13:30:00,
2013-09-17 09:45:00,45.8,37.0,30.43,NE,52,1.0,8.0,72,0.00,,,0.00,weatherlink.com 1.10,2013-09-17 13:45:00,
2013-09-17 10:00:00,47.0,38.0,30.43,NNE,30,2.0,11.0,70,0.00,,,0.00,weatherlink.com 1.10,2013-09-17 14:00:00,
2013-09-17 10:15:00,48.1,39.0,30.44,North,355,0.0,6.0,70,0.00,,,0.00,weatherlink.com 1.10,2013-09-17 14:15:00,
2013-09-17 10:30:00,49.1,38.0,30.44,NE,40,6.0,7.0,65,0.00,,,0.00,weatherlink.com 1.10,2013-09-17 14:30:00,
2013-09-17 10:45:00,49.4,38.0,30.44,North,349,0.0,8.0,64,0.00,,,0.00,weatherlink.com 1.10,2013-09-17 14:45:00,
2013-09-17 11:01:00,50.6,40.0,30.43,NNE,22,7.0,8.0,66,0.00,,,0.00,weatherlink.com 1.10,2013-09-17 15:01:00,
2013-09-17 11:17:00,51.8,40.0,30.43,ENE,72,1.0,7.0,65,0.00,,,0.00,weatherlink.com 1.10,2013-09-17 15:17:00,
2013-09-17 11:32:00,51.6,39.0,30.43,ENE,76,2.0,8.0,63,0.00,,,0.00,weatherlink.com 1.10,2013-09-17 15:32:00,
2013-09-17 11:46:00,52.7,41.0,30.42,NNE,20,2.0,8.0,64,0.00,,,0.00,weatherlink.com 1.10,2013-09-17 15:46:00,
2013-09-17 12:02:00,54.1,41.0,30.42,NW,308,2.0,7.0,62,0.00,,,0.00,weatherlink.com 1.10,2013-09-17 16:02:00,
2013-09-17 12:16:00,54.6,41.0,30.42,NNW,340,0.0,7.0,60,0.00,,,0.00,weatherlink.com 1.10,2013-09-17 16:16:00,
2013-09-17 12:32:00,55.2,41.0,30.41,WSW,252,2.0,6.0,60,0.00,,,0.00,weatherlink.com 1.10,2013-09-17 16:32:00,
2013-09-17 12:47:00,55.3,41.0,30.41,NNW,344,3.0,8.0,60,0.00,,,0.00,weatherlink.com 1.10,2013-09-17 16:47:00,
2013-09-17 13:03:00,56.0,41.0,30.41,ENE,67,0.0,10.0,58,0.00,,,0.00,weatherlink.com 1.10,2013-09-17 17:03:00,
2013-09-17 13:18:00,56.1,40.0,30.40,NNW,348,5.0,9.0,56,0.00,,,0.00,weatherlink.com 1.10,2013-09-17 17:18:00,
2013-09-17 13:33:00,56.3,41.0,30.39,WNW,284,3.0,8.0,56,0.00,,,0.00,weatherlink.com 1.10,2013-09-17 17:33:00,
2013-09-17 13:47:00,56.7,40.0,30.38,North,360,6.0,10.0,53,0.00,,,0.00,weatherlink.com 1.10,2013-09-17 17:47:00,
2013-09-17 14:02:00,57.1,42.0,30.38,NW,311,4.0,8.0,57,0.00,,,0.00,weatherlink.com 1.10,2013-09-17 18:02:00,
2013-09-17 14:18:00,57.7,40.0,30.38,NNE,17,2.0,10.0,53,0.00,,,0.00,weatherlink.com 1.10,2013-09-17 18:18:00,
2013-09-17 14:33:00,58.5,41.0,30.37,WNW,298,2.0,9.0,53,0.00,,,0.00,weatherlink.com 1.10,2013-09-17 18:33:00,
2013-09-17 14:49:00,58.7,40.0,30.37,North,11,0.0,9.0,51,0.00,,,0.00,weatherlink.com 1.10,2013-09-17 18:49:00,
2013-09-17 15:03:00,59.4,39.0,30.37,North,11,4.0,7.0,47,0.00,,,0.00,weatherlink.com 1.10,2013-09-17 19:03:00,
2013-09-17 15:18:00,59.7,41.0,30.36,NNE,19,3.0,6.0,50,0.00,,,0.00,weatherlink.com 1.10,2013-09-17 19:18:00,
2013-09-17 15:33:00,59.2,40.0,30.36,WNW,300,3.0,9.0,49,0.00,,,0.00,weatherlink.com 1.10,2013-09-17 19:33:00,
2013-09-17 15:48:00,59.2,41.0,30.36,NNW,348,4.0,9.0,51,0.00,,,0.00,weatherlink.com 1.10,2013-09-17 19:48:00,
2013-09-17 16:03:00,59.2,41.0,30.35,NNW,339,5.0,11.0,52,0.00,,,0.00,weatherlink.com 1.10,2013-09-17 20:03:00,
2013-09-17 16:18:00,59.2,41.0,30.35,NW,304,4.0,8.0,52,0.00,,,0.00,weatherlink.com 1.10,2013-09-17 20:18:00,
2013-09-17 16:33:00,59.3,40.0,30.35,NNW,338,0.0,9.0,50,0.00,,,0.00,weatherlink.com 1.10,2013-09-17 20:33:00,
2013-09-17 16:49:00,58.8,40.0,30.35,WSW,242,3.0,7.0,51,0.00,,,0.00,weatherlink.com 1.10,2013-09-17 20:49:00,
2013-09-17 17:03:00,58.7,44.0,30.35,WNW,294,3.0,7.0,59,0.00,,,0.00,weatherlink.com 1.10,2013-09-17 21:03:00,
2013-09-17 17:19:00,58.0,43.0,30.35,West,273,4.0,5.0,57,0.00,,,0.00,weatherlink.com 1.10,2013-09-17 21:19:00,
2013-09-17 17:35:00,57.3,43.0,30.35,WNW,298,1.0,3.0,59,0.00,,,0.00,weatherlink.com 1.10,2013-09-17 21:35:00,
2013-09-17 17:49:00,55.9,42.0,30.34,WNW,298,0.0,5.0,59,0.00,,,0.00,weatherlink.com 1.10,2013-09-17 21:49:00,
2013-09-17 18:04:00,52.7,41.0,30.34,WNW,298,2.0,3.0,65,0.00,,,0.00,weatherlink.com 1.10,2013-09-17 22:04:00,
2013-09-17 18:19:00,51.1,43.0,30.34,WNW,298,0.0,3.0,73,0.00,,,0.00,weatherlink.com 1.10,2013-09-17 22:19:00,
2013-09-17 18:34:00,50.0,43.0,30.34,WNW,298,0.0,1.0,76,0.00,,,0.00,weatherlink.com 1.10,2013-09-17 22:34:00,
2013-09-17 18:49:00,49.2,43.0,30.34,WNW,298,3.0,4.0,79,0.00,,,0.00,weatherlink.com 1.10,2013-09-17 22:49:00,
2013-09-17 19:04:00,48.5,42.0,30.34,WNW,298,3.0,4.0,79,0.00,,,0.00,weatherlink.com 1.10,2013-09-17 23:04:00,
2013-09-17 19:19:00,47.6,42.0,30.34,WNW,298,1.0,3.0,82,0.00,,,0.00,weatherlink.com 1.10,2013-09-17 23:19:00,
2013-09-17 19:34:00,46.4,42.0,30.34,WNW,298,1.0,3.0,85,0.00,,,0.00,weatherlink.com 1.10,2013-09-17 23:34:00,
2013-09-17 19:49:00,45.5,42.0,30.34,WNW,298,1.0,3.0,87,0.00,,,0.00,weatherlink.com 1.10,2013-09-17 23:49:00,
2013-09-17 20:05:00,44.9,42.0,30.34,WNW,298,3.0,4.0,88,0.00,,,0.00,weatherlink.com 1.10,2013-09-18 00:05:00,
2013-09-17 20:20:00,44.5,42.0,30.34,WNW,298,1.0,3.0,89,0.00,,,0.00,weatherlink.com 1.10,2013-09-18 00:20:00,
2013-09-17 20:35:00,44.1,41.0,30.34,WNW,298,3.0,4.0,89,0.00,,,0.00,weatherlink.com 1.10,2013-09-18 00:35:00,
2013-09-17 20:50:00,44.0,41.0,30.34,WNW,298,0.0,2.0,90,0.00,,,0.00,weatherlink.com 1.10,2013-09-18 00:50:00,
2013-09-17 21:05:00,43.4,41.0,30.34,WNW,298,1.0,4.0,90,0.00,,,0.00,weatherlink.com 1.10,2013-09-18 01:05:00,
2013-09-17 21:20:00,42.8,40.0,30.34,WNW,298,0.0,0.0,89,0.00,,,0.00,weatherlink.com 1.10,2013-09-18 01:20:00,
2013-09-17 21:35:00,42.2,40.0,30.34,WNW,298,1.0,3.0,91,0.00,,,0.00,weatherlink.com 1.10,2013-09-18 01:35:00,
2013-09-17 21:50:00,42.2,40.0,30.34,WNW,298,0.0,3.0,91,0.00,,,0.00,weatherlink.com 1.10,2013-09-18 01:50:00,
2013-09-17 22:05:00,41.8,40.0,30.35,WNW,298,0.0,2.0,92,0.00,,,0.00,weatherlink.com 1.10,2013-09-18 02:05:00,
2013-09-17 22:20:00,41.5,39.0,30.35,WNW,298,0.0,3.0,92,0.00,,,0.00,weatherlink.com 1.10,2013-09-18 02:20:00,
2013-09-17 22:36:00,41.3,40.0,30.35,WNW,298,1.0,3.0,93,0.00,,,0.00,weatherlink.com 1.10,2013-09-18 02:36:00,
2013-09-17 22:51:00,41.3,40.0,30.35,WNW,298,0.0,3.0,93,0.00,,,0.00,weatherlink.com 1.10,2013-09-18 02:51:00,
2013-09-17 23:06:00,40.4,38.0,30.35,WNW,298,0.0,0.0,92,0.00,,,0.00,weatherlink.com 1.10,2013-09-18 03:06:00,
2013-09-17 23:21:00,40.2,38.0,30.35,WNW,298,2.0,3.0,93,0.00,,,0.00,weatherlink.com 1.10,2013-09-18 03:21:00,
2013-09-17 23:52:00,39.7,38.0,30.35,WNW,298,0.0,2.0,94,0.00,,,0.00,weatherlink.com 1.10,2013-09-18 03:52:00,